Location: Newark
(44.9486°N, 4.8961°E)
Time: 16:40:12
(UTC+00:00)

ISS - Pass Details

Date: 31 July 2019
Orbit: 410 x 421 km, 51.6° (Epoch: 22 August)

Event Time Altitude Azimuth Distance (km) Brightness Sun altitude
Rises 21:25:43 0° 297° (WNW) 2,372 1.2 -19.2°
Reaches altitude 10° 21:27:53 10° 290° (WNW) 1,503 -0.2 -19.4°
Enters shadow 21:30:52 44° 231° (SW) 593 -3.1 -19.7°
